When you browse on this site, cookies collect data to enhance your experience and personalize the content and advertising you see.
Visit our Privacy Policy to learn more. By continuing to use the site, you agree to this use of cookies and data.
  • In Germany
  • List of Countries
  • For 7 days
  • Water Temperature
  • Weather Map
  • Weather Widgets
  • user-avatar
    Login

    Hourly Weather Namyur

    Today, 31 May, Sunday

    Time Temperature Precipitation Wind Pressure Humidity
    00:00 +12°C° 0 mm 2 mps 755 mmHg 72%
    01:00 +10°C° 0 mm 2 mps 755 mmHg 75%
    02:00 +9°C° 0 mm 2 mps 755 mmHg 77%
    03:00 +10°C° 0 mm 1 mps 755 mmHg 79%
    04:00 +10°C° 0 mm 2 mps 755 mmHg 77%
    05:00 +12°C° 0 mm 2 mps 755 mmHg 74%
    06:00 +14°C° 0 mm 2 mps 756 mmHg 70%
    07:00 +14°C° 0 mm 3 mps 756 mmHg 66%
    08:00 +17°C° 0 mm 4 mps 756 mmHg 62%
    09:00 +18°C° 0 mm 4 mps 756 mmHg 58%
    10:00 +19°C° 0 mm 5 mps 756 mmHg 55%
    11:00 +19°C° 0 mm 5 mps 755 mmHg 52%
    12:00 +20°C° 0 mm 4 mps 755 mmHg 49%
    13:00 +20°C° 0 mm 5 mps 755 mmHg 49%
    14:00 +20°C° 0 mm 5 mps 754 mmHg 49%
    15:00 +21°C° 0 mm 5 mps 754 mmHg 49%
    16:00 +20°C° 0 mm 4 mps 754 mmHg 54%
    17:00 +19°C° 0 mm 4 mps 754 mmHg 59%
    18:00 +18°C° 0 mm 4 mps 754 mmHg 65%
    19:00 +17°C° 0 mm 4 mps 755 mmHg 69%
    20:00 +14°C° 0 mm 3 mps 755 mmHg 72%
    21:00 +12°C° 0 mm 3 mps 755 mmHg 76%
    22:00 +12°C° 0 mm 3 mps 755 mmHg 77%
    23:00 +11°C° 0 mm 3 mps 755 mmHg 78%

    Tomorrow, 1 June, Monday

    Time Temperature Precipitation Wind Pressure Humidity
    00:00 +10°C° 0 mm 2 mps 756 mmHg 80%
    01:00 +10°C° 0 mm 2 mps 755 mmHg 82%
    02:00 +10°C° 0 mm 2 mps 755 mmHg 85%
    03:00 +9°C° 0 mm 2 mps 755 mmHg 87%
    04:00 +11°C° 0 mm 3 mps 755 mmHg 83%
    05:00 +12°C° 0 mm 3 mps 755 mmHg 79%
    06:00 +13°C° 0 mm 3 mps 755 mmHg 75%
    07:00 +15°C° 0 mm 4 mps 755 mmHg 71%
    08:00 +18°C° 0 mm 4 mps 756 mmHg 68%
    09:00 +20°C° 0 mm 5 mps 756 mmHg 64%
    10:00 +21°C° 0 mm 5 mps 755 mmHg 60%
    11:00 +22°C° 0 mm 5 mps 755 mmHg 56%
    12:00 +25°C° 0 mm 5 mps 755 mmHg 53%
    13:00 +25°C° 0 mm 4 mps 755 mmHg 52%
    14:00 +25°C° 0 mm 4 mps 754 mmHg 52%
    15:00 +25°C° 0 mm 4 mps 754 mmHg 52%
    16:00 +23°C° 0 mm 4 mps 754 mmHg 57%
    17:00 +24°C° 0 mm 3 mps 754 mmHg 62%
    18:00 +22°C° 0 mm 3 mps 754 mmHg 66%
    19:00 +20°C° 0 mm 3 mps 754 mmHg 70%
    20:00 +18°C° 0 mm 3 mps 754 mmHg 73%
    21:00 +16°C° 0 mm 3 mps 754 mmHg 76%
    22:00 +15°C° 0 mm 2 mps 754 mmHg 79%
    23:00 +15°C° 0 mm 2 mps 754 mmHg 82%

    Day after tomorrow, 2 June, Tuesday

    Time Temperature Precipitation Wind Pressure Humidity
    00:00 +14°C° 0 mm 1 mps 754 mmHg 85%
    01:00 +14°C° 0 mm 1 mps 754 mmHg 84%
    02:00 +13°C° 0 mm 1 mps 754 mmHg 83%
    03:00 +13°C° 0 mm 1 mps 754 mmHg 82%
    04:00 +14°C° 0 mm 1 mps 754 mmHg 80%
    05:00 +16°C° 0 mm 1 mps 754 mmHg 77%
    06:00 +18°C° 0 mm 1 mps 754 mmHg 75%
    07:00 +20°C° 0 mm 1 mps 753 mmHg 69%
    08:00 +21°C° 0 mm 1 mps 753 mmHg 64%
    09:00 +23°C° 0 mm 1 mps 753 mmHg 58%
    10:00 +24°C° 0 mm 1 mps 753 mmHg 55%
    11:00 +25°C° 0 mm 1 mps 752 mmHg 52%
    12:00 +26°C° 0 mm 1 mps 752 mmHg 49%
    13:00 +26°C° 0 mm 1 mps 752 mmHg 48%
    14:00 +27°C° 0 mm 1 mps 751 mmHg 47%
    15:00 +27°C° 0 mm 1 mps 750 mmHg 47%
    16:00 +26°C° 0.1 mm 1 mps 750 mmHg 53%
    17:00 +25°C° 0.1 mm 1 mps 750 mmHg 59%
    18:00 +24°C° 0.1 mm 1 mps 749 mmHg 65%
    19:00 +22°C° 0.1 mm 1 mps 749 mmHg 68%
    20:00 +21°C° 0.1 mm 1 mps 749 mmHg 71%
    21:00 +19°C° 0.1 mm 1 mps 749 mmHg 74%
    22:00 +18°C° 0.1 mm 1 mps 748 mmHg 77%
    23:00 +16°C° 0.1 mm 1 mps 748 mmHg 80%

    3 June, Wednesday

    Time Temperature Precipitation Wind Pressure Humidity
    00:00 +15°C° 0.1 mm 1 mps 748 mmHg 83%
    01:00 +15°C° 0 mm 1 mps 747 mmHg 84%
    02:00 +15°C° 0 mm 1 mps 747 mmHg 84%
    03:00 +15°C° 0 mm 1 mps 746 mmHg 85%
    04:00 +15°C° 0 mm 1 mps 746 mmHg 85%
    05:00 +16°C° 0 mm 1 mps 746 mmHg 84%
    06:00 +16°C° 0 mm 2 mps 745 mmHg 84%
    07:00 +18°C° 0.1 mm 2 mps 745 mmHg 79%
    08:00 +19°C° 0.1 mm 2 mps 745 mmHg 73%
    09:00 +20°C° 0.1 mm 2 mps 745 mmHg 68%
    10:00 +21°C° 0.5 mm 2 mps 744 mmHg 65%
    11:00 +23°C° 0.5 mm 2 mps 744 mmHg 61%
    12:00 +24°C° 0.5 mm 2 mps 744 mmHg 57%
    13:00 +24°C° 0.2 mm 2 mps 743 mmHg 56%
    14:00 +24°C° 0.2 mm 2 mps 743 mmHg 55%
    15:00 +24°C° 0.2 mm 2 mps 742 mmHg 54%
    16:00 +23°C° 0 mm 2 mps 742 mmHg 60%
    17:00 +21°C° 0 mm 2 mps 742 mmHg 65%
    18:00 +20°C° 0 mm 3 mps 742 mmHg 71%
    19:00 +18°C° 0 mm 3 mps 742 mmHg 77%
    20:00 +17°C° 0 mm 2 mps 742 mmHg 82%
    21:00 +15°C° 0 mm 2 mps 742 mmHg 87%
    22:00 +14°C° 0 mm 2 mps 742 mmHg 90%
    23:00 +14°C° 0 mm 2 mps 741 mmHg 93%

    4 June, Thursday

    Time Temperature Precipitation Wind Pressure Humidity
    00:00 +13°C° 0 mm 1 mps 741 mmHg 96%
    01:00 +13°C° 0 mm 2 mps 741 mmHg 96%
    02:00 +13°C° 0 mm 2 mps 741 mmHg 96%
    03:00 +13°C° 0 mm 2 mps 741 mmHg 95%
    04:00 +14°C° 0 mm 2 mps 741 mmHg 93%
    05:00 +13°C° 0 mm 3 mps 741 mmHg 90%
    06:00 +13°C° 0 mm 3 mps 741 mmHg 88%
    07:00 +13°C° 0 mm 3 mps 741 mmHg 86%
    08:00 +13°C° 0 mm 3 mps 741 mmHg 85%
    09:00 +14°C° 0 mm 3 mps 741 mmHg 83%
    10:00 +14°C° 0.1 mm 3 mps 742 mmHg 81%
    11:00 +14°C° 0.1 mm 4 mps 742 mmHg 80%
    12:00 +14°C° 0.1 mm 4 mps 742 mmHg 78%
    13:00 +15°C° 0.1 mm 4 mps 742 mmHg 74%
    14:00 +15°C° 0.1 mm 4 mps 742 mmHg 70%
    15:00 +17°C° 0.1 mm 4 mps 742 mmHg 67%
    16:00 +15°C° 0 mm 4 mps 742 mmHg 66%
    17:00 +15°C° 0 mm 4 mps 742 mmHg 65%
    18:00 +14°C° 0 mm 3 mps 742 mmHg 64%
    19:00 +12°C° 0 mm 3 mps 743 mmHg 69%
    20:00 +10°C° 0 mm 2 mps 743 mmHg 73%
    21:00 +9°C° 0 mm 1 mps 743 mmHg 77%
    22:00 +9°C° 0 mm 1 mps 743 mmHg 76%
    23:00 +8°C° 0 mm 2 mps 743 mmHg 76%

    5 June, Friday

    Time Temperature Precipitation Wind Pressure Humidity
    00:00 +8°C° 0 mm 2 mps 743 mmHg 75%
    01:00 +8°C° 0 mm 2 mps 743 mmHg 77%
    02:00 +8°C° 0 mm 3 mps 742 mmHg 78%
    03:00 +8°C° 0 mm 3 mps 742 mmHg 80%
    04:00 +8°C° 0 mm 4 mps 742 mmHg 78%
    05:00 +9°C° 0 mm 5 mps 742 mmHg 76%
    06:00 +12°C° 0 mm 5 mps 741 mmHg 75%
    07:00 +13°C° 0 mm 6 mps 741 mmHg 71%
    08:00 +14°C° 0 mm 7 mps 741 mmHg 67%
    09:00 +16°C° 0 mm 7 mps 740 mmHg 63%
    10:00 +16°C° 0 mm 8 mps 740 mmHg 60%
    11:00 +17°C° 0 mm 8 mps 740 mmHg 58%
    12:00 +18°C° 0 mm 8 mps 739 mmHg 55%
    13:00 +18°C° 0 mm 8 mps 739 mmHg 57%
    14:00 +18°C° 0 mm 8 mps 739 mmHg 59%
    15:00 +17°C° 0 mm 8 mps 739 mmHg 61%
    16:00 +16°C° 0 mm 8 mps 739 mmHg 64%
    17:00 +15°C° 0 mm 7 mps 739 mmHg 67%
    18:00 +15°C° 0 mm 6 mps 739 mmHg 70%
    19:00 +14°C° 0.1 mm 6 mps 739 mmHg 76%
    20:00 +13°C° 0.1 mm 5 mps 739 mmHg 81%
    21:00 +12°C° 0.1 mm 5 mps 740 mmHg 86%
    22:00 +12°C° 0.1 mm 4 mps 740 mmHg 87%
    23:00 +11°C° 0.1 mm 4 mps 740 mmHg 89%
    Show more